Location: Waco, TX
(31.5480°N, 97.1670°W)
Time: 02:18:53
(UTC-06:00)

ISS - Pass Details

Date: 10 November 2018
Orbit: 401 x 408 km, 51.6° (Epoch: 20 November)

Event Time Altitude Azimuth Distance (km) Brightness Sun altitude
Rises 06:42:22 0° 330° (NNW) 2,322 -0.4 -2.8°
Reaches altitude 10° 06:44:55 10° 350° (N) 1,461 -1.3 -2.3°
Maximum altitude 06:47:15 18° 36° (NE) 1,079 -1.4 -1.8°
Drops below altitude 10° 06:49:35 10° 81° (E) 1,460 0.2 -1.4°
Sets 06:52:07 0° 102° (ESE) 2,319 2.6 -0.9°
